| time (UTC) | temp F | wind direction | speed knots | gust knots | rain 1hr in | rain 24hr in | rain mn in | humidity % | barometer mb |
| 20260502163816 | 46 | 277 | 3.5 | 7.0 | 0.00 | 0.06 | 0.06 | 49 | 1018.0 |
| 20260502162816 | 46 | 9 | 2.6 | 7.0 | 0.00 | 0.06 | 0.06 | 47 | 1018.1 |
| 20260502161816 | 45 | 333 | 2.6 | 3.5 | 0.00 | 0.06 | 0.06 | 51 | 1018.0 |
| 20260502160816 | 46 | 287 | 3.5 | 7.8 | 0.00 | 0.06 | 0.06 | 50 | 1017.9 |
| 20260502151816 | 44 | 267 | 1.7 | 6.1 | 0.00 | 0.06 | 0.06 | 53 | 1017.8 |
| 20260502150816 | 44 | 321 | 5.2 | 8.7 | 0.00 | 0.06 | 0.06 | 54 | 1017.7 |
| 20260502123816 | 39 | 320 | 3.5 | 4.3 | 0.00 | 0.06 | 0.06 | 83 | 1018.0 |
| 20260502122816 | 38 | 290 | 1.7 | 2.6 | 0.00 | 0.06 | 0.06 | 87 | 1017.9 |
| 20260502121816 | 37 | 0.0 | 0.0 | 0.00 | 0.06 | 0.06 | 87 | 1018.0 | |
| 20260502120816 | 35 | 0.0 | 0.0 | 0.00 | 0.06 | 0.06 | 87 | 1018.0 | |
| 20260502115816 | 34 | 0.0 | 0.0 | 0.00 | 0.06 | 0.06 | 87 | 1017.9 | |
| 20260502114816 | 34 | 0.0 | 0.0 | 0.00 | 0.06 | 0.06 | 86 | 1017.8 | |
| 20260502113816 | 34 | 0.0 | 0.0 | 0.00 | 0.06 | 0.06 | 85 | 1017.8 | |
| 20260502112816 | 34 | 0.0 | 0.0 | 0.00 | 0.06 | 0.06 | 85 | 1017.6 | |
| 20260502111836 | 33 | 0.0 | 0.0 | 0.00 | 0.06 | 0.06 | 84 | 1017.6 | |
| 20260502110816 | 33 | 0.0 | 0.0 | 0.00 | 0.06 | 0.06 | 84 | 1017.5 | |
| 20260502105816 | 33 | 0.0 | 0.0 | 0.00 | 0.06 | 0.06 | 84 | 1017.3 | |
| 20260502104816 | 34 | 0.0 | 0.0 | 0.00 | 0.06 | 0.06 | 83 | 1017.2 | |
| 20260502103816 | 34 | 0.0 | 0.0 | 0.00 | 0.06 | 0.06 | 83 | 1017.1 | |
| 20260502102816 | 34 | 0.0 | 0.0 | 0.00 | 0.06 | 0.06 | 83 | 1017.1 | |
| 20260502101816 | 34 | 0.0 | 0.0 | 0.00 | 0.06 | 0.06 | 83 | 1017.1 | |
| 20260502100816 | 34 | 0.0 | 0.0 | 0.00 | 0.06 | 0.06 | 83 | 1017.0 | |
| 20260502090816 | 36 | 0.0 | 0.0 | 0.00 | 0.06 | 0.06 | 83 | 1016.8 | |
| 20260502070816 | 36 | 0.0 | 0.0 | 0.05 | 0.09 | 0.05 | 79 | 1016.4 | |
| 20260502065816 | 36 | 0.0 | 0.0 | 0.05 | 0.10 | 0.05 | 78 | 1016.4 | |
| 20260502064816 | 37 | 0.0 | 0.9 | 0.05 | 0.10 | 0.05 | 77 | 1016.5 | |
| 20260502063816 | 38 | 138 | 1.7 | 2.6 | 0.03 | 0.08 | 0.03 | 76 | 1016.7 |
| 20260502062816 | 38 | 0.0 | 0.0 | 0.01 | 0.06 | 0.01 | 76 | 1017.0 | |
| 20260502061816 | 39 | 72 | 1.7 | 3.5 | 0.00 | 0.05 | 0.00 | 75 | 1017.0 |
| 20260502060816 | 40 | 35 | 1.7 | 3.5 | 0.00 | 0.06 | 0.00 | 75 | 1016.9 |
| 20260502055836 | 40 | 71 | 1.7 | 2.6 | 0.00 | 0.06 | 0.00 | 74 | 1016.8 |
| 20260502054816 | 41 | 73 | 0.0 | 4.3 | 0.00 | 0.06 | 0.00 | 73 | 1016.9 |
| 20260502053836 | 41 | 89 | 1.7 | 2.6 | 0.00 | 0.06 | 0.00 | 73 | 1016.8 |
| 20260502052836 | 41 | 96 | 2.6 | 3.5 | 0.00 | 0.06 | 0.00 | 74 | 1016.9 |
| 20260502051816 | 42 | 94 | 1.7 | 3.5 | 0.00 | 0.06 | 0.00 | 75 | 1016.8 |
| 20260502050836 | 42 | 59 | 0.9 | 2.6 | 0.00 | 0.08 | 0.00 | 76 | 1016.8 |
| 20260502045816 | 42 | 119 | 0.9 | 1.7 | 0.00 | 0.08 | 0.00 | 75 | 1016.8 |
| 20260502044816 | 42 | 100 | 0.9 | 1.7 | 0.00 | 0.09 | 0.00 | 74 | 1016.7 |
| 20260502043816 | 42 | 0.0 | 0.0 | 0.00 | 0.11 | 0.00 | 73 | 1016.7 | |
| 20260502042816 | 42 | 0.0 | 0.0 | 0.00 | 0.11 | 0.00 | 71 | 1016.5 | |
| 20260502041816 | 42 | 0.0 | 0.0 | 0.00 | 0.12 | 0.00 | 71 | 1016.4 | |
| 20260502040816 | 42 | 0.0 | 0.0 | 0.00 | 0.12 | 0.00 | 70 | 1016.3 | |
| 20260502035816 | 42 | 0.0 | 0.0 | 0.00 | 0.12 | 0.12 | 70 | 1016.3 | |
| 20260502034816 | 42 | 0.0 | 0.0 | 0.00 | 0.13 | 0.12 | 68 | 1016.1 | |
| 20260502033816 | 42 | 0.0 | 0.0 | 0.00 | 0.14 | 0.12 | 68 | 1016.2 | |
| 20260502032836 | 43 | 317 | 0.9 | 1.7 | 0.00 | 0.14 | 0.12 | 68 | 1016.1 |
| 20260502031837 | 43 | 0.0 | 0.0 | 0.00 | 0.14 | 0.12 | 68 | 1016.0 | |
| 20260502030816 | 43 | 321 | 0.9 | 1.7 | 0.00 | 0.14 | 0.12 | 68 | 1016.1 |
| 20260502025816 | 43 | 299 | 0.9 | 3.5 | 0.00 | 0.14 | 0.12 | 67 | 1016.1 |
| 20260502024816 | 43 | 282 | 0.9 | 2.6 | 0.00 | 0.14 | 0.12 | 67 | 1016.1 |
| 20260502023816 | 43 | 321 | 0.9 | 1.7 | 0.00 | 0.14 | 0.12 | 66 | 1016.0 |
| 20260502022816 | 43 | 325 | 0.9 | 1.7 | 0.00 | 0.14 | 0.12 | 66 | 1016.1 |
| 20260502021816 | 44 | 0.0 | 0.0 | 0.00 | 0.14 | 0.12 | 66 | 1016.2 | |
| 20260502020816 | 44 | 0.0 | 0.9 | 0.00 | 0.14 | 0.12 | 66 | 1016.0 | |
| 20260502015816 | 44 | 320 | 0.9 | 1.7 | 0.00 | 0.14 | 0.12 | 65 | 1015.9 |
| 20260502014816 | 44 | 360 | 0.9 | 1.7 | 0.00 | 0.14 | 0.12 | 65 | 1015.8 |
| 20260502013836 | 45 | 317 | 1.7 | 2.6 | 0.00 | 0.14 | 0.12 | 65 | 1015.7 |
| 20260502012816 | 45 | 338 | 1.7 | 2.6 | 0.00 | 0.14 | 0.12 | 64 | 1015.6 |
| 20260502011816 | 45 | 340 | 1.7 | 2.6 | 0.00 | 0.14 | 0.12 | 64 | 1015.5 |
| 20260502010815 | 45 | 333 | 1.7 | 2.6 | 0.00 | 0.14 | 0.12 | 64 | 1015.5 |
| 20260502005816 | 45 | 6 | 3.5 | 6.1 | 0.00 | 0.14 | 0.12 | 64 | 1015.4 |
| 20260502004816 | 45 | 303 | 0.9 | 6.1 | 0.00 | 0.14 | 0.12 | 64 | 1015.2 |
| 20260502003816 | 46 | 313 | 1.7 | 2.6 | 0.00 | 0.14 | 0.12 | 64 | 1015.3 |
| 20260502002816 | 46 | 311 | 0.0 | 2.6 | 0.00 | 0.14 | 0.12 | 63 | 1015.2 |
| 20260502001816 | 46 | 277 | 0.9 | 1.7 | 0.00 | 0.14 | 0.12 | 63 | 1015.2 |
| 20260502000816 | 46 | 312 | 0.9 | 1.7 | 0.00 | 0.14 | 0.12 | 62 | 1015.0 |
| 20260501235836 | 46 | 306 | 2.6 | 7.0 | 0.00 | 0.14 | 0.12 | 61 | 1014.9 |
| 20260501234815 | 47 | 289 | 2.6 | 6.1 | 0.00 | 0.14 | 0.12 | 61 | 1014.6 |
| 20260501233816 | 47 | 342 | 4.3 | 8.7 | 0.00 | 0.14 | 0.12 | 59 | 1014.6 |
| 20260501232816 | 48 | 341 | 7.0 | 11.3 | 0.00 | 0.14 | 0.12 | 59 | 1014.4 |
| 20260501231837 | 48 | 4 | 2.6 | 4.3 | 0.00 | 0.14 | 0.12 | 58 | 1014.4 |
| 20260501230816 | 48 | 356 | 3.5 | 9.6 | 0.00 | 0.14 | 0.12 | 57 | 1014.3 |
| 20260501225816 | 49 | 2 | 3.5 | 7.8 | 0.00 | 0.14 | 0.12 | 57 | 1014.3 |
| 20260501224816 | 49 | 343 | 3.5 | 7.0 | 0.00 | 0.14 | 0.12 | 57 | 1014.3 |
| 20260501223917 | 49 | 358 | 2.6 | 6.1 | 0.00 | 0.14 | 0.12 | 57 | 1014.3 |
| 20260501222815 | 49 | 337 | 5.2 | 7.8 | 0.00 | 0.14 | 0.12 | 55 | 1014.3 |
| 20260501221816 | 49 | 316 | 3.5 | 7.0 | 0.00 | 0.14 | 0.12 | 54 | 1014.1 |
| 20260501220816 | 50 | 288 | 3.5 | 5.2 | 0.00 | 0.14 | 0.12 | 54 | 1014.1 |
| 20260501214816 | 50 | 296 | 2.6 | 9.6 | 0.00 | 0.14 | 0.12 | 52 | 1013.9 |
| 20260501213816 | 51 | 293 | 4.3 | 8.7 | 0.00 | 0.14 | 0.12 | 54 | 1013.9 |
| 20260501212817 | 50 | 359 | 5.2 | 8.7 | 0.00 | 0.14 | 0.12 | 51 | 1013.8 |
| 20260501211817 | 50 | 331 | 2.6 | 6.1 | 0.00 | 0.14 | 0.12 | 51 | 1013.6 |
| 20260501210816 | 51 | 330 | 2.6 | 7.0 | 0.00 | 0.14 | 0.12 | 53 | 1013.5 |
| 20260501205816 | 50 | 346 | 3.5 | 7.8 | 0.00 | 0.14 | 0.12 | 55 | 1013.4 |
| 20260501204816 | 50 | 243 | 1.7 | 3.5 | 0.00 | 0.14 | 0.12 | 56 | 1013.4 |
| 20260501203816 | 50 | 288 | 1.7 | 5.2 | 0.00 | 0.14 | 0.12 | 57 | 1013.5 |
| 20260501202836 | 50 | 0.0 | 0.0 | 0.00 | 0.14 | 0.12 | 61 | 1013.5 | |
| 20260501201816 | 50 | 149 | 0.9 | 1.7 | 0.00 | 0.14 | 0.12 | 62 | 1013.5 |
| 20260501200816 | 49 | 247 | 1.7 | 3.5 | 0.00 | 0.14 | 0.12 | 62 | 1013.5 |
| 20260501195816 | 49 | 268 | 1.7 | 3.5 | 0.00 | 0.14 | 0.12 | 66 | 1013.6 |
| 20260501194816 | 48 | 259 | 0.0 | 1.7 | 0.00 | 0.14 | 0.12 | 68 | 1013.6 |
| 20260501193836 | 48 | 244 | 1.7 | 2.6 | 0.00 | 0.14 | 0.12 | 67 | 1013.6 |
| 20260501192816 | 48 | 260 | 0.9 | 1.7 | 0.00 | 0.14 | 0.12 | 65 | 1013.5 |
| 20260501191816 | 48 | 202 | 0.9 | 1.7 | 0.00 | 0.14 | 0.12 | 63 | 1013.4 |
| 20260501190916 | 49 | 209 | 2.6 | 5.2 | 0.00 | 0.14 | 0.12 | 64 | 1013.3 |
| 20260501185936 | 48 | 278 | 0.0 | 1.7 | 0.00 | 0.14 | 0.12 | 63 | 1013.4 |
| 20260501184916 | 49 | 150 | 1.7 | 3.5 | 0.00 | 0.14 | 0.12 | 63 | 1013.3 |
| 20260501183917 | 49 | 59 | 0.9 | 1.7 | 0.00 | 0.14 | 0.12 | 60 | 1013.3 |
| 20260501182916 | 49 | 168 | 0.9 | 1.7 | 0.00 | 0.14 | 0.12 | 63 | 1013.2 |
| 20260501181916 | 48 | 30 | 0.9 | 1.7 | 0.00 | 0.14 | 0.12 | 64 | 1013.3 |
| 20260501180916 | 47 | 32 | 0.9 | 2.6 | 0.00 | 0.14 | 0.12 | 67 | 1013.2 |
| 20260501175916 | 47 | 338 | 3.5 | 4.3 | 0.00 | 0.14 | 0.12 | 66 | 1013.3 |
| 20260501174916 | 47 | 342 | 1.7 | 2.6 | 0.00 | 0.14 | 0.12 | 68 | 1013.3 |
| 20260501173916 | 47 | 95 | 0.0 | 0.9 | 0.00 | 0.14 | 0.12 | 68 | 1013.2 |
| 20260501172936 | 48 | 88 | 1.7 | 1.7 | 0.00 | 0.14 | 0.12 | 69 | 1013.2 |
| 20260501171936 | 49 | 314 | 0.9 | 2.6 | 0.00 | 0.14 | 0.12 | 67 | 1013.1 |